EW6393 Weather Reports


Display with metric or nautical units.
time (UTC)temp
F
wind
direction
speed
MPH
gust
MPH
rain 1hr
in
rain 24hr
in
rain mn
in
humidity
%
barometer
mb
20260901031630 62 148 0.0 2.0 0.00 0.00 0.00 74 1020.3
20260901031137 62 115 1.0 2.0 0.00 0.00 0.00 73 1019.9
20260901030617 62 179 0.0 1.0 0.00 0.00 0.00 73 1019.8
20260901030120 62 325 0.0 4.0 0.00 0.00 0.00 72 1019.6
20260901025628 63 309 0.0 4.0 0.00 0.00 0.00 71 1019.5
20260901025130 63 247 0.0 4.0 0.00 0.00 0.00 70 1019.4
20260901024630 63 288 3.0 4.0 0.00 0.00 0.00 70 1019.2
20260901024111 63 316 0.0 2.0 0.00 0.00 0.00 70 1019.4
20260901023619 63 330 0.0 2.0 0.00 0.00 0.00 70 1019.4
20260901023147 63 345 0.0 1.0 0.00 0.00 0.00 70 1019.4
20260901022627 63 89 0.0 1.0 0.00 0.00 0.00 71 1019.5
20260901022129 63 226 0.0 1.0 0.00 0.00 0.00 69 1019.6
20260901021637 63 226 0.0 1.0 0.00 0.00 0.00 69 1019.9
20260901021116 63 226 0.0 2.0 0.00 0.00 0.00 69 1019.9
20260901020618 63 158 0.0 1.0 0.00 0.00 0.00 68 1020.1
20260901020126 63 203 0.0 1.0 0.00 0.00 0.00 68 1020.1
20260901015635 63 120 0.0 2.0 0.00 0.00 0.00 68 1020.3
20260901015115 64 224 1.0 4.0 0.00 0.00 0.00 67 1020.4
20260901014623 64 244 0.0 3.0 0.00 0.00 0.00 67 1020.4
20260901014124 64 279 1.0 3.0 0.00 0.00 0.00 66 1020.4
20260901013653 64 256 1.0 3.0 0.00 0.00 0.00 65 1020.3
20260901013133 64 94 0.0 7.0 0.00 0.00 0.00 65 1020.4
20260901012612 65 126 3.0 6.0 0.00 0.00 0.00 64 1020.4
20260901012137 65 228 2.0 6.0 0.00 0.00 0.00 64 1020.5
20260901011625 65 117 3.0 6.0 0.00 0.00 0.00 63 1020.6
20260901011111 65 165 0.0 8.0 0.00 0.00 0.00 64 1020.7
20260901010613 65 240 2.0 9.0 0.00 0.00 0.00 64 1020.8
20260901010119 65 194 1.0 8.0 0.00 0.00 0.00 65 1020.9
20260901005621 65 84 2.0 11.0 0.00 0.00 0.00 65 1021.0
20260901005146 65 214 4.0 11.0 0.00 0.00 0.00 65 1021.1
20260901004647 65 124 3.0 6.0 0.00 0.00 0.00 65 1021.2
20260901004134 65 96 2.0 6.0 0.00 0.00 0.00 65 1021.2
20260901003635 65 128 1.0 5.0 0.00 0.00 0.00 67 1021.2
20260901003122 65 120 3.0 8.0 0.00 0.00 0.00 67 1021.1
20260901002624 65 179 3.0 8.0 0.00 0.00 0.00 67 1021.0
20260901002126 65 139 4.0 8.0 0.00 0.00 0.00 67 1020.9
20260901001635 65 156 3.0 8.0 0.00 0.00 0.00 66 1020.8
20260901001116 66 188 3.0 11.0 0.00 0.00 0.00 65 1020.7
20260901000624 66 197 3.0 14.0 0.00 0.00 0.00 64 1020.6
20260901000124 66 125 4.0 14.0 0.00 0.00 0.00 63 1020.6
20260831235633 66 174 8.0 13.0 0.00 0.00 0.00 62 1020.7
20260831235114 66 153 6.0 11.0 0.00 0.00 0.00 65 1020.6
20260831234615 66 210 3.0 10.0 0.00 0.00 0.00 66 1020.6
20260831234117 67 103 5.0 18.0 0.00 0.00 0.00 63 1020.6
20260831233645 69 130 9.0 18.0 0.00 0.00 0.00 60 1020.7
20260831233133 70 155 6.0 13.0 0.00 0.00 0.00 54 1020.5
20260831232615 71 134 3.0 13.0 0.00 0.00 0.00 51 1019.9
20260831232114 72 236 8.0 15.0 0.00 0.00 0.00 47 1019.3
20260831231643 73 149 1.0 11.0 0.00 0.00 0.00 44 1018.8
20260831231123 74 226 5.0 11.0 0.00 0.00 0.00 42 1018.6
20260831230625 76 353 2.0 9.0 0.00 0.00 0.00 42 1018.2
20260831230112 77 132 4.0 19.0 0.00 0.00 0.00 45 1017.7
20260831225614 77 301 9.0 19.0 0.00 0.00 0.00 46 1017.5
20260831225116 77 290 4.0 11.0 0.00 0.00 0.00 46 1017.3
20260831224645 78 219 3.0 14.0 0.00 0.00 0.00 44 1016.8
20260831224133 79 272 7.0 14.0 0.00 0.00 0.00 42 1016.7
20260831223613 81 278 2.0 7.0 0.00 0.00 0.00 34 1016.3
20260831223114 82 289 1.0 3.0 0.00 0.00 0.00 32 1016.0
20260831222616 82 227 0.0 3.0 0.00 0.00 0.00 32 1015.9
20260831222124 83 112 0.0 7.0 0.00 0.00 0.00 31 1015.8
20260831221625 83 195 2.0 7.0 0.00 0.00 0.00 29 1015.7
20260831221114 83 193 1.0 7.0 0.00 0.01 0.00 30 1015.6
20260831220635 83 193 4.0 9.0 0.00 0.01 0.00 28 1015.6
20260831220123 84 143 4.0 12.0 0.00 0.01 0.00 29 1015.5
20260831215653 84 169 4.0 12.0 0.00 0.01 0.00 31 1015.6
20260831215113 84 140 3.0 8.0 0.00 0.01 0.00 29 1015.7
20260831214614 84 88 4.0 8.0 0.00 0.01 0.00 28 1015.8
20260831214142 84 232 3.0 8.0 0.00 0.01 0.00 29 1016.0
20260831213624 85 170 4.0 8.0 0.00 0.01 0.00 28 1015.9
20260831213133 85 168 3.0 6.0 0.00 0.01 0.00 29 1016.0
20260831212616 85 165 4.0 9.0 0.00 0.01 0.00 29 1016.1
20260831212117 85 146 4.0 9.0 0.00 0.01 0.00 28 1016.2
20260831211626 85 139 2.0 9.0 0.00 0.01 0.00 28 1016.2
20260831211128 85 142 3.0 7.0 0.00 0.01 0.00 28 1016.2
20260831210636 85 239 2.0 11.0 0.00 0.01 0.00 27 1016.3
20260831210116 84 206 4.0 11.0 0.00 0.01 0.00 28 1016.3
20260831205618 84 145 3.0 9.0 0.00 0.01 0.00 28 1016.4
20260831205127 85 151 4.0 8.0 0.00 0.01 0.00 27 1016.5
20260831204655 85 120 5.0 8.0 0.00 0.01 0.00 27 1016.7
20260831204114 85 157 3.0 7.0 0.00 0.01 0.00 27 1016.6
20260831203615 85 167 2.0 6.0 0.00 0.01 0.00 28 1016.7
20260831203119 85 238 2.0 5.0 0.00 0.01 0.00 30 1016.7
20260831202623 85 127 2.0 5.0 0.00 0.01 0.00 30 1016.7
20260831202152 86 162 1.0 5.0 0.00 0.01 0.00 31 1016.9
20260831201611 85 204 1.0 6.0 0.00 0.01 0.00 29 1016.9
20260831201140 86 210 2.0 5.0 0.00 0.01 0.00 29 1017.0
20260831200621 85 293 1.0 4.0 0.00 0.03 0.00 33 1017.0
20260831200129 85 180 2.0 4.0 0.00 0.03 0.00 34 1017.1
20260831195630 85 54 1.0 3.0 0.00 0.03 0.00 33 1017.3
20260831195111 84 156 0.0 4.0 0.00 0.03 0.00 35 1017.3
20260831194620 84 275 1.0 4.0 0.00 0.03 0.00 35 1017.4
20260831194122 85 275 0.0 2.0 0.00 0.03 0.00 36 1017.5
20260831193651 83 124 1.0 7.0 0.00 0.03 0.00 36 1017.7
20260831193110 83 13 2.0 7.0 0.00 0.03 0.00 35 1017.9
20260831192612 83 11 1.0 4.0 0.00 0.03 0.00 38 1018.0
20260831192120 83 219 1.0 5.0 0.00 0.03 0.00 37 1017.9
20260831191622 82 295 2.0 5.0 0.00 0.03 0.00 37 1018.0
20260831191130 82 257 2.0 4.0 0.00 0.03 0.00 37 1018.1
20260831190633 82 307 1.0 3.0 0.00 0.03 0.00 38 1018.1
20260831190114 82 288 1.0 3.0 0.00 0.03 0.00 37 1018.2
20260831185620 81 208 1.0 2.0 0.00 0.03 0.00 38 1018.2
20260831185128 81 261 0.0 3.0 0.00 0.03 0.00 37 1018.2
20260831184629 80 251 1.0 3.0 0.00 0.03 0.00 38 1018.3
20260831184130 80 78 0.0 2.0 0.00 0.03 0.00 39 1018.4
20260831183611 79 276 1.0 2.0 0.00 0.03 0.00 39 1018.5
20260831183119 79 290 0.0 3.0 0.00 0.03 0.00 38 1018.6
20260831182647 78 270 1.0 4.0 0.00 0.03 0.00 41 1018.8
20260831182128 79 281 2.0 4.0 0.00 0.03 0.00 40 1018.9
20260831181654 79 273 0.0 2.0 0.00 0.03 0.00 39 1018.9
20260831181115 79 208 1.0 2.0 0.00 0.03 0.00 41 1019.0
20260831180616 79 190 0.0 2.0 0.00 0.03 0.00 41 1019.0
20260831180125 79 190 0.0 2.0 0.00 0.03 0.00 40 1019.0
20260831175627 78 203 0.0 2.0 0.00 0.03 0.00 42 1019.1
20260831175128 78 278 1.0 5.0 0.00 0.03 0.00 40 1019.1
20260831174616 78 281 1.0 3.0 0.00 0.03 0.00 42 1019.2
20260831174118 78 257 1.0 2.0 0.00 0.03 0.00 42 1019.2
20260831173627 77 134 1.0 3.0 0.00 0.03 0.00 41 1019.1
20260831173126 77 120 0.0 3.0 0.00 0.03 0.00 43 1019.1
20260831172629 76 231 1.0 2.0 0.00 0.03 0.00 44 1019.3
20260831172136 76 140 1.0 2.0 0.00 0.03 0.00 44 1019.3
20260831171618 76 98 0.0 3.0 0.00 0.03 0.00 42 1019.3
20260831171119 76 125 2.0 3.0 0.00 0.03 0.00 43 1019.4
20260831170627 75 255 0.0 2.0 0.00 0.03 0.00 45 1019.3
20260831170157 75 253 0.0 3.0 0.00 0.03 0.00 44 1019.3
20260831165617 75 274 1.0 3.0 0.00 0.03 0.00 43 1019.2
20260831165117 76 264 0.0 1.0 0.00 0.03 0.00 43 1019.2
20260831164647 76 304 0.0 2.0 0.00 0.03 0.00 42 1019.1
20260831164128 76 315 1.0 2.0 0.00 0.03 0.00 40 1019.1
20260831163637 76 229 1.0 3.0 0.00 0.03 0.00 43 1019.2
20260831163117 76 283 1.0 2.0 0.00 0.03 0.00 42 1019.1
20260831162623 75 217 0.0 2.0 0.00 0.03 0.00 43 1019.1
20260831162125 74 239 1.0 2.0 0.00 0.03 0.00 44 1019.1
20260831161614 73 326 0.0 2.0 0.00 0.03 0.00 42 1019.1
20260831161115 73 297 0.0 2.0 0.00 0.03 0.00 47 1019.1
20260831160617 73 285 1.0 2.0 0.00 0.03 0.00 46 1019.0
20260831160123 73 282 1.0 3.0 0.00 0.03 0.00 46 1019.0
20260831155632 72 277 1.0 3.0 0.00 0.03 0.00 45 1019.0
20260831155113 72 286 2.0 3.0 0.00 0.03 0.00 46 1018.9
20260831154614 72 290 1.0 2.0 0.00 0.03 0.00 46 1018.8
20260831154116 72 274 0.0 2.0 0.00 0.03 0.00 47 1018.9
20260831153645 72 271 0.0 1.0 0.00 0.03 0.00 46 1018.9
20260831153133 71 259 0.0 1.0 0.00 0.03 0.00 47 1019.0
20260831152614 71 306 0.0 2.0 0.00 0.03 0.00 47 1019.1
20260831152114 71 309 0.0 2.0 0.00 0.03 0.00 46 1019.1
20260831151622 71 278 1.0 3.0 0.00 0.03 0.00 46 1019.1
20260831151123 71 271 1.0 3.0 0.00 0.03 0.00 46 1019.1
20260831150633 72 269 0.0 1.0 0.00 0.03 0.00 43 1019.1
20260831150121 72 266 0.0 1.0 0.00 0.03 0.00 45 1019.1
20260831145621 72 266 0.0 1.0 0.00 0.03 0.00 43 1019.3
20260831145123 72 64 0.0 0.0 0.00 0.03 0.00 46 1019.3
20260831144632 70 65 0.0 1.0 0.00 0.03 0.00 46 1019.2
20260831144113 69 65 0.0 1.0 0.00 0.03 0.00 49 1019.3
20260831143615 68 65 0.0 1.0 0.00 0.03 0.00 53 1019.2
20260831143122 66 65 0.0 2.0 0.00 0.03 0.00 53 1019.2
20260831142624 65 65 1.0 2.0 0.00 0.03 0.00 52 1019.3
20260831142132 65 65 1.0 1.0 0.00 0.03 0.00 51 1019.2
20260831141614 65 65 0.0 3.0 0.00 0.03 0.00 51 1019.2
20260831141114 64 60 2.0 3.0 0.00 0.03 0.00 51 1019.2
20260831140623 63 60 1.0 2.0 0.00 0.03 0.00 53 1019.1
20260831140122 63 60 1.0 2.0 0.00 0.03 0.00 53 1019.1
20260831135623 63 64 0.0 2.0 0.00 0.03 0.00 52 1019.0
20260831135131 63 67 1.0 1.0 0.00 0.03 0.00 53 1018.9
20260831134612 62 65 1.0 1.0 0.00 0.03 0.00 53 1018.8
20260831134112 62 65 1.0 1.0 0.00 0.03 0.00 53 1018.9
20260831133620 62 65 1.0 2.0 0.00 0.03 0.00 53 1018.8
20260831133122 62 67 1.0 2.0 0.00 0.03 0.00 52 1018.8
20260831132625 62 70 1.0 2.0 0.00 0.03 0.00 51 1018.8
20260831132115 62 65 1.0 2.0 0.00 0.03 0.00 51 1018.8
20260831131614 62 65 1.0 3.0 0.00 0.03 0.00 50 1018.8
20260831131115 62 57 1.0 2.0 0.00 0.03 0.00 51 1018.8
20260831130622 62 79 1.0 2.0 0.00 0.04 0.00 51 1018.7
20260831130151 61 67 0.0 2.0 0.00 0.04 0.00 52 1018.6
20260831125611 61 75 1.0 2.0 0.00 0.04 0.00 53 1018.7
20260831125112 61 84 1.0 2.0 0.00 0.04 0.00 54 1018.7
20260831124613 61 83 0.0 1.0 0.00 0.04 0.00 54 1018.7
20260831124140 61 85 0.0 2.0 0.00 0.04 0.00 53 1018.7
20260831123628 60 67 1.0 2.0 0.00 0.04 0.00 55 1018.7
20260831123129 59 67 0.0 2.0 0.00 0.04 0.00 57 1018.8
20260831122610 59 67 0.0 2.0 0.00 0.04 0.00 60 1018.8
20260831122113 59 112 0.0 2.0 0.00 0.04 0.00 59 1018.9
20260831121620 59 65 1.0 2.0 0.00 0.04 0.00 59 1018.9
20260831121121 59 117 0.0 1.0 0.00 0.04 0.00 62 1018.9
20260831120650 58 117 1.0 1.0 0.00 0.07 0.00 63 1019.0
20260831120129 59 257 0.0 0.0 0.00 0.07 0.00 63 1018.9
20260831115636 59 257 0.0 0.0 0.00 0.07 0.00 62 1018.9
20260831115117 59 257 0.0 1.0 0.00 0.07 0.00 61 1018.8
20260831114625 60 257 0.0 1.0 0.00 0.07 0.00 59 1018.8
20260831114127 61 51 0.0 1.0 0.00 0.07 0.00 58 1018.8
20260831113628 61 51 0.0 2.0 0.00 0.07 0.00 57 1018.8
20260831113136 61 51 0.0 2.0 0.00 0.07 0.00 58 1018.8
20260831112619 61 70 0.0 1.0 0.00 0.07 0.00 57 1018.8
20260831112119 61 86 1.0 1.0 0.00 0.07 0.00 57 1018.8
20260831111627 60 73 1.0 1.0 0.00 0.07 0.00 57 1018.7
20260831111155 61 99 0.0 1.0 0.00 0.07 0.00 58 1018.6
20260831110636 61 99 0.0 2.0 0.00 0.07 0.00 57 1018.6
20260831110143 60 96 1.0 1.0 0.00 0.07 0.00 58 1018.6
20260831105624 60 101 0.0 1.0 0.00 0.07 0.00 59 1018.6
20260831105131 61 103 0.0 1.0 0.00 0.07 0.00 58 1018.6
20260831104639 61 103 0.0 1.0 0.00 0.07 0.00 58 1018.5
20260831104119 61 141 0.0 1.0 0.00 0.07 0.00 59 1018.5
20260831103620 61 141 0.0 1.0 0.00 0.07 0.00 58 1018.6
20260831103129 61 141 0.0 1.0 0.00 0.07 0.00 57 1018.6
20260831102611 61 141 0.0 1.0 0.00 0.07 0.00 57 1018.5
20260831102113 62 72 0.0 1.0 0.00 0.07 0.00 57 1018.6
20260831101643 63 72 0.0 1.0 0.00 0.07 0.00 55 1018.5
20260831101123 64 72 0.0 1.0 0.00 0.07 0.00 52 1018.3
20260831100633 64 69 0.0 1.0 0.00 0.07 0.00 51 1018.4
20260831100134 64 69 0.0 2.0 0.00 0.07 0.00 52 1018.3
20260831095622 64 69 1.0 2.0 0.00 0.07 0.00 53 1018.3
20260831095124 64 99 1.0 1.0 0.00 0.07 0.00 54 1018.3
20260831094626 64 60 0.0 2.0 0.00 0.07 0.00 53 1018.4
20260831094134 63 76 1.0 2.0 0.00 0.07 0.00 54 1018.3
20260831093636 63 60 1.0 1.0 0.00 0.07 0.00 54 1018.4
20260831093123 63 14 0.0 1.0 0.00 0.07 0.00 54 1018.3
20260831092625 63 14 0.0 1.0 0.00 0.07 0.00 55 1018.3
20260831092126 63 14 0.0 1.0 0.00 0.07 0.00 54 1018.3
20260831091635 64 14 0.0 2.0 0.00 0.07 0.00 52 1018.3
20260831091115 64 14 0.0 2.0 0.00 0.07 0.00 51 1018.3
20260831090615 63 79 0.0 1.0 0.00 0.07 0.00 54 1018.3
20260831090124 63 79 0.0 1.0 0.00 0.07 0.00 56 1018.4
20260831085631 63 79 0.0 0.0 0.00 0.07 0.00 56 1018.3
20260831085111 64 79 0.0 1.0 0.00 0.07 0.00 55 1018.3
20260831084613 65 79 0.0 1.0 0.00 0.07 0.00 53 1018.3
20260831084121 65 70 0.0 2.0 0.00 0.07 0.00 52 1018.3
20260831083622 65 70 0.0 2.0 0.00 0.07 0.00 54 1018.3
20260831083132 65 96 0.0 2.0 0.00 0.07 0.00 55 1018.3
20260831082612 65 91 1.0 2.0 0.00 0.07 0.00 55 1018.4
20260831082113 64 40 0.0 2.0 0.00 0.07 0.00 55 1018.5
20260831081622 64 84 0.0 2.0 0.00 0.07 0.00 56 1018.5
20260831081123 64 70 1.0 2.0 0.00 0.07 0.00 57 1018.5
20260831080626 64 75 1.0 2.0 0.00 0.07 0.00 57 1018.6
20260831080114 64 60 0.0 2.0 0.00 0.07 0.00 57 1018.6
20260831075616 64 75 1.0 2.0 0.00 0.07 0.00 57 1018.7
20260831075117 64 126 1.0 1.0 0.00 0.07 0.00 58 1018.8
20260831074626 64 120 0.0 1.0 0.00 0.07 0.00 57 1018.7
20260831074127 64 120 0.0 1.0 0.00 0.07 0.00 56 1018.7
20260831073637 64 120 0.0 1.0 0.00 0.07 0.00 56 1018.7
20260831073114 65 120 1.0 1.0 0.00 0.07 0.00 57 1018.6
20260831072614 65 90 0.0 1.0 0.00 0.07 0.00 55 1018.7
20260831072122 65 70 0.0 1.0 0.00 0.07 0.00 55 1018.6
20260831071625 65 70 0.0 1.0 0.00 0.07 0.00 57 1018.7
20260831071132 65 70 0.0 2.0 0.00 0.07 0.00 56 1018.8
20260831070635 65 70 1.0 2.0 0.00 0.07 0.00 57 1018.7
20260831070120 65 91 0.0 2.0 0.00 0.07 0.00 57 1018.7
20260831065623 65 59 0.0 1.0 0.00 0.07 0.00 58 1018.7
20260831065124 65 59 0.0 2.0 0.00 0.07 0.00 57 1018.6
20260831064633 65 65 0.0 2.0 0.00 0.07 0.00 57 1018.6
20260831064114 65 49 0.0 2.0 0.00 0.07 0.00 58 1018.6
20260831063614 65 85 0.0 3.0 0.00 0.07 0.00 58 1018.7
20260831063144 65 65 1.0 3.0 0.00 0.07 0.00 58 1018.6
20260831062625 65 74 0.0 2.0 0.00 0.07 0.00 59 1018.6
20260831062133 65 96 0.0 1.0 0.00 0.07 0.00 59 1018.8
20260831061615 65 96 0.0 1.0 0.00 0.07 0.00 59 1018.7
20260831061117 65 96 1.0 1.0 0.00 0.07 0.00 60 1018.6
20260831060625 65 96 1.0 1.0 0.00 0.08 0.07 59 1018.6
20260831060125 65 41 0.0 1.0 0.00 0.08 0.07 60 1018.6
20260831055634 65 40 0.0 1.0 0.00 0.08 0.07 59 1018.6
20260831055135 65 41 0.0 1.0 0.00 0.08 0.07 59 1018.5
20260831054623 65 40 0.0 1.0 0.00 0.08 0.07 59 1018.6
20260831054144 65 41 0.0 1.0 0.00 0.08 0.07 58 1018.6
20260831053653 65 40 0.0 1.0 0.00 0.08 0.07 59 1018.7
20260831053139 66 40 0.0 1.0 0.00 0.08 0.07 58 1018.7
20260831052621 66 40 0.0 1.0 0.00 0.08 0.07 57 1018.7
20260831052122 66 40 0.0 1.0 0.00 0.08 0.07 57 1018.7
20260831051624 66 41 0.0 0.0 0.00 0.08 0.07 58 1018.6
20260831051131 66 41 0.0 0.0 0.00 0.08 0.07 58 1018.6
20260831050614 66 40 0.0 1.0 0.00 0.09 0.07 57 1018.5
20260831050114 67 40 0.0 1.0 0.00 0.09 0.07 56 1018.4
20260831045642 67 41 0.0 1.0 0.00 0.09 0.07 55 1018.3
20260831045131 67 41 0.0 1.0 0.00 0.09 0.07 55 1018.3
20260831044630 67 40 0.0 1.0 0.00 0.09 0.07 54 1018.3
20260831044111 68 40 0.0 0.0 0.00 0.09 0.07 54 1018.3
20260831043613 68 40 0.0 1.0 0.00 0.09 0.07 53 1018.3
20260831043143 68 41 0.0 1.0 0.00 0.09 0.07 53 1018.3
20260831042632 68 40 0.0 2.0 0.00 0.09 0.07 53 1018.2
20260831042114 68 32 0.0 2.0 0.00 0.09 0.07 52 1018.2
20260831041614 68 67 0.0 1.0 0.00 0.09 0.07 52 1018.2
20260831041116 68 67 0.0 1.0 0.00 0.09 0.07 53 1018.3
20260831040624 67 67 0.0 1.0 0.00 0.10 0.07 53 1018.3
20260831040125 68 67 0.0 1.0 0.00 0.10 0.07 54 1018.3
20260831035633 68 67 0.0 1.0 0.00 0.10 0.07 52 1018.4
20260831035136 68 67 0.0 1.0 0.00 0.10 0.07 52 1018.3
20260831034622 69 68 0.0 1.0 0.00 0.10 0.07 52 1018.3
20260831034124 69 76 0.0 1.0 0.00 0.10 0.07 52 1018.1
20260831033633 69 62 0.0 2.0 0.00 0.10 0.07 51 1018.1
20260831033115 69 65 1.0 2.0 0.00 0.10 0.07 51 1018.0
20260831032615 69 68 0.0 1.0 0.00 0.10 0.07 51 1018.0
20260831032124 69 72 0.0 2.0 0.00 0.10 0.07 52 1018.0